Погода в Волгограде

Хотите узнать прогноз погоды в Волгограде? Тогда Вам сюда: Погода в Волгограде

Поиск расширенной информации на нашем сайте:

Полезная информация:

Новости сайта



02.01.2020
Опубликован Долгосрочный прогноз погоды по городам России и ближнего зарубежья на январь 2020 года.
Карты: Прогноз на январь и февраль 2020 года, Сравнение прогнозируемой аномалии приземной температуры воздуха на январь 2020 года по разным моделям.




Погода в Волгограде - сегодня

Время (UTC), дата Ветер
(°,м/с) 
Видим.   Явления Облачность Т
(°С)
Тd
(°С)
f(%) Тe
(°С)
Pmin
(гПа)
dP
(гПа)
Po
(мм)
O2
(г/м3)
Тmin Tmax R s Состояние
почвы
15 18.10.20 130 (ЮВ) 5{13}  10 км    6/6 2000 м 
[Sc]
+22.7 +12.3 52 +27  1005.7  -2.4  741  273    +24.9       
18 18.10.20 230 (ЮЗ) 2{10}  10 км    4/0 верхняя 
[Ci fib]
+15.3 +10.2 72 +18  1014.2  0.1  747  283           
21 18.10.20 280 (З) 10 км    6/0 средняя 
[Ac trans]
+15.6 +10.9 74 +18  1014.5  0.3  747  283           
00 19.10.20 040 (СВ) 10 км  слаб. ливневой дождь  9/5 1500 м кучево-дожд., средняя 
[Cb calv|Ac trans]
+12.8 +10.4 85 +14  1015.2  0.5  748  286           
03 19.10.20 020 (С) 10 км  слаб. ливневой дождь  10/6 1500 м кучево-дожд., средняя 
[Cb calv|Ac und]
+11.2 +9.9 92 +12  1016.8  1.4  749  288  +11.2         
06 19.10.20 350 (С) 10 км  в посл. час ливневой дождь  8/4 1000 м кучево-дожд., средняя 
[Cb calv|Ac trans]
+11.8 +8.9 82 +12  1018.2  1.4  750  288  +10.9         
09 19.10.20 010 (С) 10 км    9/0 средняя 
[Ac trans]
+13.4 +6.4 63 +13  1018.1  -0.1  750  287           
12 19.10.20 360 (С) 10 км    4/0 средняя 
[Ac trans]
+15.7 +4.9 49 +16  1016.8  -1.1  749  285           
15 19.10.20 360 (С) 10 км    9/0 средняя 
[Ac trans]
+12.7 +4.5 57 +12  1017.1  0.1  749  288    +15.8       
18 19.10.20 350 (С) 10 км  в посл. час ливневой дождь  9/4 1500 м кучево-дожд., средняя 
[Cb calv|Ac trans]
+10.5 +3.3 61 +10  1018.2  0.9  750  290           
21 19.10.20 360 (С) 4000 м  слаб. ливневой дождь  9/9 1000 м кучево-дожд. 
[Cb calv]
+8.1 +5.8 85 +9  1019.8  1.5  751  293           
00 20.10.20 260 (З) 10 км  в посл. час ливневой дождь  5/0 средняя 
[Ac trans]
+6.2 +5.2 93 +6  1020  -0.1  751  295           
03 20.10.20 260 (З) 10 км    5/5 1500 м 
[Sc]
+5.6 +4.4 92 +5  1021.4  1.4  752  296  +5.4         
06 20.10.20 290 (З) 10 км    3/0 средняя 
[Ac trans]
+8 +4.6 79 +7  1022.2  0.9  752  294  +5         
09 20.10.20 270 (З) 10 км    5/5 870 м 
[Cu hum]
+11.8 +4.7 62 +11  1021.7  -0.2  752  290           
12 20.10.20 270 (З) 10 км  {ливн. осадки}  6/6 1000 м кучево-дожд. 
[Cb calv]
+11.5 +2.8 55 +10  1021.1  -0.6  752  290           
15 20.10.20 270 (З) 10 км    3/0 средняя 
[Ac trans]
+7.6 +0.6 61 +6  1021.9  0.5  752  295    +12.7       
18 20.10.20 270 (З) 10 км    ясно 
+4.1 -0.7 71 +4  1022.6  0.4  753  299           
21 20.10.20 260 (З) 10 км    4/0 средняя 
[Ac trans]
+2.8 -1.9 71 +1  1022.9  0.2  753  300           
00 21.10.20 270 (З) 10 км    4/0 средняя 
[Ac trans]
+1.9 -2.2 74 1023.8  0.8  753  302           
03 21.10.20 270 (З) 10 км    ясно 
+0.1 -2.4 83 -2  1025  1.1  754  304  +0.1         
06 21.10.20 280 (З) 10 км    ясно 
+4.7 +0.4 74 +3  1026.2  1.5  755  299  -1.2         
09 21.10.20 280 (З) 8-11{12}  10 км    5/5 1000 м 
[Sc]
+9 -1 49 +7  1025.7  -0.2  755  295           
12 21.10.20 290 (З) 8-12{13}  10 км    5/0 верхняя 
[Ci fib]
+9.1 -3.1 42 +7  1025.5  -0.1  755  295           
15 21.10.20 300 (СЗ) 3{12}  10 км    9/0 средняя, верхняя 
[Ac trans|Ci fib]
+5.2 -1.9 60 +4  1026.1  0.3  755  299    +9.9       
Время (UTC), дата Ветер
(°,м/с) 
Видим.   Явления Облачность Т
(°С)
Тd
(°С)
f(%) Тe
(°С)
Pmin
(гПа)
dP
(гПа)
Po
(мм)
O2
(г/м3)
Тmin Tmax R s Состояние
почвы

Для получения пояснительной информации подведите курсор к названию столбца.

ПОГОДА в Волгограде - архив

Всё, что Вы хотите узнать о погоде в Волгограде - удобно и подробно!

Выберите нужную дату (начиная с 1 января 2019* года) и нажмите кнопку "Найти".
Будут отображены архивные сводки погоды по пункту Волгоград, начиная с указанной даты.


Отображать данные в формате CSV (для использования в таблицах Excel)


Внимание! Наш архив погоды предназначен исключительно для личного некоммерческого использования в познавательных целях. Если Вам необходимы официальные справки о состоянии погоды (для производственных, юридических, коммерческих и т.п. целей), обращайтесь в органы Росгидромета.

*Примечание: данная дата относится к архиву по метеостанциям СССР (Россия, СНГ, Балтия).
Архив по метеостанциям Зарубежной Европы и Азии (кроме Китая) хранится 10 дней, по другим регионам земного шара (Китай, Африка, Америка, Австралия, Океания) - 1 день.

Волгоград - район местоположения метеостанции


Название, широта, долгота, высота метеостанции:
Волгоград (Гумрак) 48.8°ш. 44.4°д. 134 м над ур. моря [Российская Федерация]

Дополнительная информация

В oтличие oт бoльшинства пoгoдных сайтoв мы публикуем пoдрoбную метеoинфoрмацию в детальнoм прoфессиoнальнoм фoрмате.

Характеристики температуры и влажнoсти вoздуха измеряются на высoте 2 м в тени вдали oт зданий и деревьев.
Скoрoсть ветра измеряется на высoте 10 м (на урoвне рoста челoвека скoрoсть ветра ниже в 1.5-2 раза). Если метеoстанция нахoдится в гoрoде или в лесу, тo скoрoсть ветра занижена на 2-4 м/с пo сравнению с oткрытым местoм. Скoрoсть ветра над акватoриями крупных рек и oзёр, а также на вершинах хoлмoв на 2-5 м/с выше, чем в oбычных услoвиях.
Атмoсфернoе давление в разных тoчках местнoсти мoжет значительнo oтличаться oт давления на метеoстанции, в зависимoсти oт услoвий рельефа (при пoдъёме на 10 м давление пoнижается примернo на 1 мм рт.ст.).